User: anonymous
Location: Caltech
(34.1382°N, 118.1253°W)
Time: 23:11:20
(UTC-07:00)
Language:

BREEZE M DEB (TANK) - Orbit

View from above orbital plane
View from above orbital plane
View from above satellite
View from above satellite

Ground track
Ground track

The orbit data is extracted from the following two-line orbital elements,

1 33437U 08057B   14264.78229740  .00001305  00000-0  39026-3 0  1002
2 33437 049.5735 018.0614 5008689 071.6669 015.8060 05.55952771118013
Epoch (UTC): 21 September 2014 18:46:30
Eccentricity: 0.5008689
inclination: 49.5735°
perigee height: 340 km
apogee height: 13823 km
right ascension of ascending node: 18.0614°
argument of perigee: 71.6669°
revolutions per day: 5.55952771
mean anomaly at epoch: 15.8060°
orbit number at epoch: 11801

The dashed part of the orbit path shows where the satellite is in the earth's shadow,  

DLR